Tracking 19490 objects as of 23-Jan-2019
HD Live streaming from Space Station
objects crossing your sky now

COSMOS 1795

Track COSMOS 1795 now!
10-day predictions
COSMOS 1795 is classified as:


NORAD ID: 17139
Int'l Code: 1986-092B
Perigee: 1,472.4 km
Apogee: 1,489.6 km
Inclination: 74.0 °
Period: 115.4 minutes
Semi major axis: 7851 km
RCS: 0.6945 m2 (medium)
Launch date: November 21, 1986
Source: Commonwealth of Independent States (former USSR) (CIS)
Launch site: PLESETSK MISSILE AND SPACE COMPLEX (PKMTR)
aabbcc
Your satellite tracking list
Your tracking list is empty




NASA's NSSDC Master Catalog

Two Line Element Set (TLE):
1 17139U 86092B   19022.95033069 -.00000024 +00000-0 -51736-4 0  9999
2 17139 074.0143 014.4158 0010942 279.7052 108.2485 12.47772327465479
Source of the keplerian elements: AFSPC